Location: Hillern
(53.0557°N, 9.8577°E)
Time: 17:11:37
(UTC+00:00)

PKM - Pass Details

Date: 19 May 2025
Orbit: 412 x 13725 km, 55.3° (Epoch: 16 June)

Event Time Altitude Azimuth Distance (km) Brightness Sun altitude
Rises 22:18:06 0° 249° (WSW) 2,357 7.0 -15.9°
Reaches altitude 10° 22:19:47 10° 249° (WSW) 1,501 6.0 -15.9°
Maximum altitude 22:22:33 89° 167° (SSE) 523 3.6 -16.0°
Drops below altitude 10° 22:27:36 10° 71° (ENE) 2,701 7.4 -16.2°
Sets 22:31:45 0° 72° (ENE) 4,685 8.6 -16.3°
